GW6043 Weather Reports


time (UTC)temp
C
wind
direction
speed
KPH
gust
KPH
rain 1hr
cm
rain 24hr
cm
rain mn
cm
humidity
%
barometer
mb
20260504100354 5 294 0.0 0.0 0.00 0.00 0.00 72 1015.6
20260504081748 6 346 0.0 1.6 0.00 0.00 0.00 66 1016.0
20260504081244 6 318 0.0 0.0 0.00 0.00 0.00 66 1016.0
20260504080741 7 324 0.0 0.0 0.00 0.00 0.00 64 1016.1
20260504080237 7 316 0.0 0.0 0.00 0.00 0.00 64 1016.0
20260504070205 7 310 0.0 0.0 0.00 0.00 0.00 66 1016.0
20260504060125 6 320 0.0 0.0 0.00 0.00 0.00 71 1015.9
20260504050554 8 310 3.2 3.2 0.00 0.00 0.00 59 1016.2
20260504045547 8 323 0.0 0.0 0.00 0.00 0.00 62 1016.0
20260504045043 8 315 0.0 0.0 0.00 0.00 0.00 62 1016.2
20260504044540 8 291 0.0 0.0 0.00 0.00 0.00 61 1016.2
20260504044037 8 320 0.0 0.0 0.00 0.00 0.00 59 1016.1
20260504043534 8 308 0.0 0.0 0.00 0.00 0.00 59 1015.8
20260504043032 8 319 0.0 0.0 0.00 0.00 0.00 60 1015.9
20260504042529 8 317 0.0 0.0 0.00 0.00 0.00 59 1015.9
20260504042026 8 324 0.0 0.0 0.00 0.00 0.00 57 1016.0
20260504041521 8 319 0.0 1.6 0.00 0.00 0.00 58 1016.1
20260504041017 8 322 0.0 0.0 0.00 0.00 0.00 59 1016.1
20260504040515 9 318 0.0 0.0 0.00 0.00 0.00 57 1016.0
20260504040012 9 318 0.0 0.0 0.00 0.00 0.00 56 1016.0
20260504035509 9 308 1.6 1.6 0.00 0.00 0.00 57 1015.9
20260504035005 10 308 0.0 0.0 0.00 0.00 0.00 58 1015.9
20260504034503 9 306 1.6 1.6 0.00 0.00 0.00 57 1015.6
20260504033959 10 318 0.0 0.0 0.00 0.00 0.00 56 1015.6
20260504033457 10 229 3.2 3.2 0.00 0.00 0.00 57 1015.8
20260504032954 10 294 1.6 1.6 0.00 0.00 0.00 56 1015.6
20260504032451 10 305 1.6 1.6 0.00 0.00 0.00 56 1015.8
20260504031948 10 315 0.0 0.0 0.00 0.00 0.00 55 1015.8
20260504031445 10 308 0.0 0.0 0.00 0.00 0.00 54 1015.6
20260504030941 10 321 0.0 0.0 0.00 0.00 0.00 54 1015.4
20260504030438 10 323 0.0 0.0 0.00 0.00 0.00 53 1015.6
20260504025934 10 313 0.0 0.0 0.00 0.00 0.00 54 1015.7
20260504025431 10 312 1.6 1.6 0.00 0.00 0.00 53 1015.5
20260504024929 10 295 0.0 0.0 0.00 0.00 0.00 54 1015.5
20260504024426 10 316 0.0 1.6 0.00 0.00 0.00 56 1015.5
20260504023922 10 304 0.0 1.6 0.00 0.00 0.00 56 1015.6
20260504023419 10 304 0.0 0.0 0.00 0.00 0.00 54 1015.6
20260504022914 10 320 0.0 0.0 0.00 0.00 0.00 53 1015.6
20260504022411 10 324 0.0 0.0 0.00 0.00 0.00 52 1015.3
20260504021908 10 308 0.0 0.0 0.00 0.00 0.00 52 1015.5
20260504021405 10 322 0.0 0.0 0.00 0.00 0.00 52 1015.5
20260504020902 10 324 0.0 0.0 0.00 0.00 0.00 52 1015.5
20260504020359 10 330 0.0 0.0 0.00 0.00 0.00 51 1015.4
20260504015855 11 329 0.0 0.0 0.00 0.00 0.00 51 1015.5
20260504015351 11 321 0.0 0.0 0.00 0.00 0.00 50 1015.5
20260504014847 11 317 0.0 0.0 0.00 0.00 0.00 50 1015.3
20260504014343 11 310 1.6 1.6 0.00 0.00 0.00 48 1015.5
20260504013841 11 308 0.0 1.6 0.00 0.00 0.00 48 1015.4
20260504013339 11 306 0.0 0.0 0.00 0.00 0.00 48 1015.4
20260504012835 12 279 1.6 1.6 0.00 0.00 0.00 47 1015.4
20260504012333 12 309 0.0 1.6 0.00 0.00 0.00 46 1015.3
20260504011830 12 318 0.0 0.0 0.00 0.00 0.00 46 1015.3
20260504011327 12 317 0.0 1.6 0.00 0.00 0.00 46 1015.1
20260504010823 12 310 1.6 1.6 0.00 0.00 0.00 45 1015.1
20260504010318 12 325 0.0 0.0 0.00 0.00 0.00 46 1015.3
20260504005815 12 320 0.0 0.0 0.00 0.00 0.00 45 1015.2
20260504005312 12 311 0.0 0.0 0.00 0.00 0.00 45 1015.0
20260504004810 12 320 0.0 0.0 0.00 0.00 0.00 45 1015.1
20260504004307 12 256 0.0 1.6 0.00 0.00 0.00 43 1015.0
20260504003803 13 322 0.0 0.0 0.00 0.00 0.00 43 1015.1
20260504003300 13 292 1.6 1.6 0.00 0.00 0.00 43 1015.1
20260504002757 13 267 1.6 1.6 0.00 0.00 0.00 44 1014.8
20260504002254 13 323 0.0 0.0 0.00 0.00 0.00 42 1015.0
20260504001752 13 317 0.0 1.6 0.00 0.00 0.00 42 1014.8
20260504001248 13 305 0.0 0.0 0.00 0.00 0.00 41 1014.7
20260504000745 13 274 1.6 3.2 0.00 0.00 0.00 41 1014.8
20260504000242 13 236 3.2 3.2 0.00 0.00 0.00 40 1014.7
20260503235740 14 266 4.8 8.0 0.00 0.00 0.00 40 1014.7
20260503235237 14 319 1.6 1.6 0.00 0.00 0.00 39 1014.7
20260503234735 15 308 1.6 3.2 0.00 0.00 0.00 39 1014.6
20260503234233 15 312 1.6 3.2 0.00 0.00 0.00 38 1014.7
20260503233730 15 257 1.6 4.8 0.00 0.00 0.00 39 1014.6
20260503233225 15 293 1.6 1.6 0.00 0.00 0.00 39 1014.3
20260503232722 15 305 1.6 1.6 0.00 0.00 0.00 38 1014.5
20260503232220 15 289 3.2 3.2 0.00 0.00 0.00 37 1014.4
20260503231718 15 296 1.6 1.6 0.00 0.00 0.00 37 1014.5
20260503231214 15 312 6.4 8.0 0.00 0.00 0.00 38 1014.4
20260503230710 15 255 1.6 1.6 0.00 0.00 0.00 38 1014.6
20260503230208 15 238 8.0 11.3 0.00 0.00 0.00 36 1014.5
20260503225705 15 217 3.2 4.8 0.00 0.00 0.00 37 1014.2
20260503225205 15 283 3.2 4.8 0.00 0.00 0.00 37 1014.3
20260503224703 15 318 1.6 3.2 0.00 0.00 0.00 37 1014.4
20260503224200 15 268 1.6 3.2 0.00 0.00 0.00 37 1014.4
20260503223658 15 297 1.6 1.6 0.00 0.00 0.00 37 1014.5
20260503223155 15 144 4.8 4.8 0.00 0.00 0.00 36 1014.4
20260503222652 15 262 4.8 11.3 0.00 0.00 0.00 36 1014.4
20260503222149 16 279 4.8 4.8 0.00 0.00 0.00 35 1014.5
20260503221648 16 324 8.0 12.9 0.00 0.00 0.00 34 1014.3
20260503221144 16 304 8.0 9.7 0.00 0.00 0.00 35 1014.2
20260503220641 16 293 3.2 3.2 0.00 0.00 0.00 36 1014.3
20260503220138 16 193 6.4 9.7 0.00 0.00 0.00 36 1014.3
20260503215635 16 249 11.3 12.9 0.00 0.00 0.00 34 1014.4
20260503215132 16 307 4.8 9.7 0.00 0.00 0.00 35 1014.5
20260503214630 16 323 4.8 8.0 0.00 0.00 0.00 34 1014.5
20260503214126 16 274 8.0 9.7 0.00 0.00 0.00 35 1014.3
20260503213626 16 266 4.8 8.0 0.00 0.00 0.00 34 1014.5
20260503213121 16 307 8.0 12.9 0.00 0.00 0.00 36 1014.2
20260503212619 16 253 8.0 11.3 0.00 0.00 0.00 35 1014.2
20260503212117 16 305 9.7 16.1 0.00 0.00 0.00 36 1014.4
20260503211614 16 320 4.8 8.0 0.00 0.00 0.00 35 1014.4
20260503211109 16 191 8.0 11.3 0.00 0.00 0.00 36 1014.4
20260503210606 16 295 9.7 11.3 0.00 0.00 0.00 36 1014.2
20260503205559 16 312 14.5 16.1 0.00 0.00 0.00 35 1014.4
20260503205055 16 239 8.0 11.3 0.00 0.00 0.00 36 1014.3
20260503204552 16 278 11.3 14.5 0.00 0.00 0.00 36 1014.3
20260503204049 16 309 8.0 11.3 0.00 0.00 0.00 36 1014.4
20260503203546 16 241 9.7 12.9 0.00 0.00 0.00 36 1014.5
20260503203043 16 296 8.0 12.9 0.00 0.00 0.00 37 1014.5
20260503202541 15 281 4.8 4.8 0.00 0.00 0.00 37 1014.4
20260503202039 15 357 4.8 9.7 0.00 0.00 0.00 36 1014.6
20260503201537 15 325 3.2 4.8 0.00 0.00 0.00 37 1014.5
20260503201034 15 259 8.0 11.3 0.00 0.00 0.00 38 1014.6
20260503200530 15 251 6.4 9.7 0.00 0.00 0.00 37 1014.7
20260503200027 15 333 11.3 12.9 0.00 0.00 0.00 36 1015.0
20260503195524 15 264 3.2 3.2 0.00 0.00 0.00 37 1014.7
20260503195021 15 301 11.3 16.1 0.00 0.00 0.00 36 1014.6
20260503194518 15 253 6.4 9.7 0.00 0.00 0.00 36 1014.7
20260503194017 14 322 8.0 11.3 0.00 0.00 0.00 37 1015.0
20260503193514 15 246 6.4 9.7 0.00 0.00 0.00 38 1014.9
20260503193010 15 260 6.4 9.7 0.00 0.00 0.00 37 1015.0
20260503192506 15 327 8.0 12.9 0.00 0.00 0.00 38 1014.9
20260503192001 15 295 3.2 4.8 0.00 0.00 0.00 37 1014.9
20260503191459 15 324 4.8 9.7 0.00 0.00 0.00 37 1015.1
20260503190955 16 271 4.8 4.8 0.00 0.00 0.00 35 1015.3
20260503190453 14 301 4.8 9.7 0.00 0.00 0.00 37 1015.3
20260503185950 15 273 14.5 25.7 0.00 0.00 0.00 36 1015.6
20260503185446 15 299 4.8 8.0 0.00 0.00 0.00 38 1015.4
20260503184946 14 318 11.3 16.1 0.00 0.00 0.00 35 1015.5
20260503184442 15 250 6.4 12.9 0.00 0.00 0.00 37 1015.7
20260503183938 15 287 8.0 11.3 0.00 0.00 0.00 36 1015.6
20260503183435 15 295 8.0 12.9 0.00 0.00 0.00 36 1015.7
20260503182932 15 283 12.9 22.5 0.00 0.00 0.00 36 1015.7
20260503182431 15 337 9.7 12.9 0.00 0.00 0.00 35 1015.5
20260503181928 14 267 8.0 12.9 0.00 0.00 0.00 37 1015.8
20260503181425 13 306 3.2 3.2 0.00 0.00 0.00 39 1015.8
20260503180921 14 306 8.0 11.3 0.00 0.00 0.00 37 1015.7
20260503180420 15 294 8.0 11.3 0.00 0.00 0.00 37 1015.9
20260503175916 15 289 8.0 9.7 0.00 0.00 0.00 36 1016.0
20260503175415 15 187 4.8 11.3 0.00 0.00 0.00 39 1015.7
20260503174910 15 251 6.4 8.0 0.00 0.00 0.00 36 1015.7
20260503174409 13 179 9.7 11.3 0.00 0.00 0.00 39 1015.9
20260503173908 13 261 8.0 9.7 0.00 0.00 0.00 37 1015.7
20260503173405 13 278 4.8 8.0 0.00 0.00 0.00 36 1015.9
20260503172902 13 285 8.0 11.3 0.00 0.00 0.00 39 1016.1
20260503172359 13 237 9.7 11.3 0.00 0.00 0.00 38 1016.1
20260503171855 12 290 9.7 14.5 0.00 0.00 0.00 38 1016.1
20260503171352 12 302 8.0 12.9 0.00 0.00 0.00 38 1016.4
20260503170850 13 325 3.2 4.8 0.00 0.00 0.00 40 1016.1
20260503170346 12 317 1.6 3.2 0.00 0.00 0.00 40 1016.4
20260503150738 11 290 1.6 3.2 0.00 0.00 0.00 46 1017.4
20260503150234 10 278 6.4 8.0 0.00 0.00 0.00 42 1017.3
20260503140159 9 298 9.7 14.5 0.00 0.00 0.00 42 1017.5
20260503131128 8 301 8.0 11.3 0.00 0.00 0.00 48 1017.7
20260503130626 8 345 4.8 8.0 0.00 0.00 0.00 50 1017.8
20260503130123 8 314 8.0 12.9 0.00 0.00 0.00 51 1017.7
20260503110516 5 336 3.2 3.2 0.00 0.00 0.00 64 1017.1